,,,PA_Meas_PMT16A,,PR_Meas_QMR101_102,,RH_Meas_QMH101,,SR_Meas_QMS101,,TA_Meas_QMH101,,GenWind,,GenWind,
date,time,status,PA,status,PR,status,RH,status,SR,status,TA,status,DirAvg,status,SpdAvg,
2010-01-27, 00:00:05,VALID,1003.29,VALID,0,VALID,81.3852,VALID,0,VALID,22.903,VALID,122,VALID,3.22695,
2010-01-27, 00:01:05,VALID,1003.24,VALID,0,VALID,79.6227,VALID,0,VALID,22.8445,VALID,136,VALID,3.40781,
2010-01-27, 00:02:05,VALID,1003.24,VALID,0,VALID,80.8892,VALID,0,VALID,22.8445,VALID,127,VALID,3.35625,
2010-01-27, 00:03:05,VALID,1003.19,VALID,0,VALID,81.347,VALID,0,VALID,22.7647,VALID,129,VALID,3.58828,
2010-01-27, 00:04:05,VALID,1003.19,VALID,0,VALID,81.82,VALID,0,VALID,22.7079,VALID,126,VALID,3.46523,
2010-01-27, 00:05:05,VALID,1003.11,VALID,0,VALID,80.9732,VALID,0,VALID,22.6104,VALID,136,VALID,4.89375,
2010-01-27, 00:06:05,VALID,1003.1,VALID,0,VALID,80.5001,VALID,0,VALID,22.5714,VALID,129,VALID,4.94336,
2010-01-27, 00:07:05,VALID,1003.09,VALID,0,VALID,79.287,VALID,0,VALID,22.4721,VALID,130,VALID,4.93828,
2010-01-27, 00:08:05,VALID,1003.09,VALID,0,VALID,81.7895,VALID,0,VALID,22.4348,VALID,120,VALID,3.92344,
2010-01-27, 00:09:05,VALID,1003.03,VALID,0,VALID,80.5001,VALID,0,VALID,22.2966,VALID,124,VALID,5.30273,
2010-01-27, 00:10:05,VALID,1003.1,VALID,0,VALID,81.4691,VALID,0,VALID,22.199,VALID,124,VALID,4.22227,
2010-01-27, 00:11:05,VALID,1003.09,VALID,0,VALID,81.5683,VALID,0,VALID,22.0837,VALID,117,VALID,4.7793,
2010-01-27, 00:12:05,VALID,1003.08,VALID,0,VALID,81.5835,VALID,0,VALID,21.9455,VALID,121,VALID,5.18008,
2010-01-27, 00:13:05,VALID,1003.07,VALID,0,VALID,81.9345,VALID,0,VALID,21.8675,VALID,114,VALID,5.14531,
2010-01-27, 00:14:05,VALID,1003.06,VALID,0,VALID,82.6212,VALID,0,VALID,21.8268,VALID,113,VALID,4.37383,
2010-01-27, 00:15:05,VALID,1003.06,VALID,0,VALID,83.0332,VALID,0,VALID,21.7878,VALID,112,VALID,5.08086,
2010-01-27, 00:16:05,VALID,1003.08,VALID,0,VALID,84.0632,VALID,0,VALID,21.77,VALID,109,VALID,3.91953,
2010-01-27, 00:17:05,VALID,1003.06,VALID,0,VALID,84.3989,VALID,0,VALID,21.731,VALID,108,VALID,3.32656,
2010-01-27, 00:18:05,VALID,1003.08,VALID,0,VALID,84.7422,VALID,0,VALID,21.692,VALID,96,VALID,2.94727,
2010-01-27, 00:19:05,VALID,1003.03,VALID,0,VALID,84.3531,VALID,0,VALID,21.6513,VALID,108,VALID,3.54453,
2010-01-27, 00:20:05,VALID,1003.01,VALID,0,VALID,84.9177,VALID,0,VALID,21.692,VALID,106,VALID,2.75547,
2010-01-27, 00:21:05,VALID,1002.98,VALID,0,VALID,84.7117,VALID,0,VALID,21.6725,VALID,123,VALID,3.12188,
2010-01-27, 00:22:05,VALID,1002.93,VALID,0,VALID,84.9482,VALID,0,VALID,21.692,VALID,105,VALID,2.6668,
2010-01-27, 00:23:05,VALID,1002.88,VALID,0,VALID,85.4823,VALID,0,VALID,21.731,VALID,95,VALID,2.03047,
2010-01-27, 00:24:05,VALID,1002.85,VALID,0,VALID,86.2071,VALID,0,VALID,21.7115,VALID,119,VALID,2.18438,
2010-01-27, 00:25:05,VALID,1002.81,VALID,0,VALID,86.3978,VALID,0,VALID,21.6725,VALID,124,VALID,3.93516,
2010-01-27, 00:26:05,VALID,1002.82,VALID,0,VALID,87.3286,VALID,0,VALID,21.6335,VALID,124,VALID,2.48398,
2010-01-27, 00:27:05,VALID,1002.8,VALID,0,VALID,87.3439,VALID,0,VALID,21.5945,VALID,120,VALID,2.6125,
2010-01-27, 00:28:05,VALID,1002.79,VALID,0,VALID,87.6567,VALID,0,VALID,21.5945,VALID,111,VALID,2.07227,
2010-01-27, 00:29:05,VALID,1002.78,VALID,0,VALID,88.3052,VALID,0,VALID,21.5945,VALID,90,VALID,1.33711,
2010-01-27, 00:30:05,VALID,1002.76,VALID,0,VALID,88.3815,VALID,0.112286,VALID,21.5945,VALID,126,VALID,1.56484,
2010-01-27, 00:31:05,VALID,1002.75,VALID,0,VALID,88.3586,VALID,0,VALID,21.5945,VALID,134,VALID,2.11562,
2010-01-27, 00:32:05,VALID,1002.77,VALID,0,VALID,88.3892,VALID,0,VALID,21.5928,VALID,135,VALID,1.8375,
2010-01-27, 00:33:05,VALID,1002.74,VALID,0,VALID,88.6257,VALID,0,VALID,21.653,VALID,136,VALID,1.28867,
2010-01-27, 00:34:05,VALID,1002.73,VALID,0,VALID,88.6714,VALID,0.112286,VALID,21.6318,VALID,146,VALID,1.14492,
2010-01-27, 00:35:05,VALID,1002.75,VALID,0.5,VALID,88.9766,VALID,0.112286,VALID,21.653,VALID,150,VALID,0.894531,
2010-01-27, 00:36:05,VALID,1002.72,VALID,0,VALID,89.0682,VALID,0.112286,VALID,21.6725,VALID,191,VALID,0.728906,
2010-01-27, 00:37:05,VALID,1002.74,VALID,0,VALID,89.175,VALID,0,VALID,21.692,VALID,183,VALID,0.748438,
2010-01-27, 00:38:05,VALID,1002.76,VALID,0,VALID,89.2971,VALID,0.112286,VALID,21.7115,VALID,191,VALID,0.942187,
2010-01-27, 00:39:05,VALID,1002.7,VALID,0,VALID,89.4649,VALID,0.112286,VALID,21.7488,VALID,201,VALID,1.16328,
2010-01-27, 00:40:05,VALID,1002.7,VALID,0,VALID,89.442,VALID,0.112286,VALID,21.7878,VALID,196,VALID,0.689453,
2010-01-27, 00:41:05,VALID,1002.7,VALID,0,VALID,89.4344,VALID,0.112286,VALID,21.8285,VALID,216,VALID,1.03008,
2010-01-27, 00:42:05,VALID,1002.68,VALID,0,VALID,89.1445,VALID,0,VALID,21.848,VALID,242,VALID,0.749219,
2010-01-27, 00:43:05,VALID,1002.66,VALID,0,VALID,88.9156,VALID,0,VALID,21.887,VALID,210,VALID,1.02578,
2010-01-27, 00:44:05,VALID,1002.64,VALID,0,VALID,88.9309,VALID,0,VALID,21.9082,VALID,222,VALID,0.812109,
2010-01-27, 00:45:05,VALID,1002.61,VALID,0,VALID,88.5799,VALID,0,VALID,21.8887,VALID,232,VALID,1.12188,
2010-01-27, 00:46:05,VALID,1002.6,VALID,0,VALID,88.145,VALID,0,VALID,21.8887,VALID,225,VALID,1.39922,
2010-01-27, 00:47:05,VALID,1002.66,VALID,0,VALID,88.412,VALID,0,VALID,21.8675,VALID,218,VALID,0.836719,
2010-01-27, 00:48:05,VALID,1002.61,VALID,0,VALID,88.4578,VALID,0,VALID,21.9082,VALID,199,VALID,0.984375,
2010-01-27, 00:49:05,VALID,1002.61,VALID,0,VALID,87.9695,VALID,0,VALID,21.9082,VALID,212,VALID,1.07109,
2010-01-27, 00:50:05,VALID,1002.6,VALID,0,VALID,87.4583,VALID,0,VALID,21.9065,VALID,207,VALID,1.39063,
2010-01-27, 00:51:05,VALID,1002.59,VALID,0,VALID,87.1379,VALID,0,VALID,21.965,VALID,197,VALID,1.75742,
2010-01-27, 00:52:05,VALID,1002.6,VALID,0,VALID,86.9243,VALID,0,VALID,22.0057,VALID,211,VALID,1.27383,
2010-01-27, 00:53:05,VALID,1002.57,VALID,0,VALID,86.6649,VALID,0,VALID,22.0235,VALID,219,VALID,1.69414,
2010-01-27, 00:54:05,VALID,1002.59,VALID,0,VALID,86.8785,VALID,0,VALID,22.0235,VALID,232,VALID,1.79688,
2010-01-27, 00:55:05,VALID,1002.61,VALID,0,VALID,87.5423,VALID,0,VALID,22.0057,VALID,224,VALID,1.26992,
2010-01-27, 00:56:05,VALID,1002.57,VALID,0,VALID,87.3744,VALID,0,VALID,21.9862,VALID,212,VALID,1.8918,
2010-01-27, 00:57:05,VALID,1002.54,VALID,0,VALID,86.8785,VALID,0,VALID,21.9667,VALID,213,VALID,2.58945,
2010-01-27, 00:58:05,VALID,1002.53,VALID,0,VALID,86.5886,VALID,0,VALID,21.9667,VALID,204,VALID,2.40039,
2010-01-27, 00:59:05,VALID,1002.53,VALID,0,VALID,86.4817,VALID,0,VALID,21.9862,VALID,199,VALID,2.48477,
2010-01-27, 01:00:05,VALID,1002.52,VALID,0,VALID,85.879,VALID,0,VALID,22.0057,VALID,197,VALID,2.63125,
2010-01-27, 01:01:05,VALID,1002.5,VALID,0,VALID,86.6801,VALID,0,VALID,22.0447,VALID,195,VALID,2.11094,
2010-01-27, 01:02:05,VALID,1002.53,VALID,0,VALID,87.1532,VALID,0,VALID,22.043,VALID,196,VALID,1.85273,
2010-01-27, 01:03:05,VALID,1002.49,VALID,0,VALID,86.8709,VALID,0,VALID,22.043,VALID,190,VALID,2.0043,
2010-01-27, 01:04:05,VALID,1002.5,VALID,0,VALID,87.2066,VALID,0,VALID,22.043,VALID,202,VALID,1.09219,
2010-01-27, 01:05:05,VALID,1002.46,VALID,0,VALID,86.642,VALID,0,VALID,22.0447,VALID,198,VALID,2.27305,
2010-01-27, 01:06:05,VALID,1002.47,VALID,0,VALID,86.436,VALID,0,VALID,22.0642,VALID,192,VALID,2.24023,
2010-01-27, 01:07:05,VALID,1002.44,VALID,0,VALID,86.5275,VALID,0,VALID,22.0447,VALID,198,VALID,1.93906,
2010-01-27, 01:08:05,VALID,1002.43,VALID,0,VALID,86.6954,VALID,0,VALID,22.0252,VALID,197,VALID,2.23125,
2010-01-27, 01:09:05,VALID,1002.42,VALID,0,VALID,87.466,VALID,0,VALID,21.9845,VALID,196,VALID,1.50117,
2010-01-27, 01:10:05,VALID,1002.41,VALID,0,VALID,87.1837,VALID,0,VALID,21.9862,VALID,190,VALID,1.59883,
2010-01-27, 01:11:05,VALID,1002.41,VALID,0,VALID,87.6033,VALID,0,VALID,21.965,VALID,195,VALID,1.26797,
2010-01-27, 01:12:05,VALID,1002.39,VALID,0,VALID,87.4507,VALID,0,VALID,21.9862,VALID,208,VALID,1.34141,
2010-01-27, 01:13:05,VALID,1002.39,VALID,0,VALID,87.5041,VALID,0,VALID,21.965,VALID,199,VALID,1.13242,
2010-01-27, 01:14:05,VALID,1002.42,VALID,0,VALID,86.8709,VALID,0,VALID,21.9862,VALID,198,VALID,1.70156,
2010-01-27, 01:15:05,VALID,1002.39,VALID,0,VALID,86.7946,VALID,0,VALID,21.965,VALID,196,VALID,1.10391,
2010-01-27, 01:16:05,VALID,1002.39,VALID,0,VALID,86.6267,VALID,0,VALID,21.965,VALID,194,VALID,1.54062,
2010-01-27, 01:17:05,VALID,1002.37,VALID,0,VALID,87.0997,VALID,0,VALID,21.9667,VALID,189,VALID,1.72539,
2010-01-27, 01:18:05,VALID,1002.32,VALID,0,VALID,86.3673,VALID,0,VALID,21.926,VALID,199,VALID,1.84336,
2010-01-27, 01:19:05,VALID,1002.33,VALID,0,VALID,87.2218,VALID,0,VALID,21.926,VALID,188,VALID,1.15195,
2010-01-27, 01:20:05,VALID,1002.33,VALID,0,VALID,87.1913,VALID,0,VALID,21.9082,VALID,184,VALID,1.88125,
2010-01-27, 01:21:05,VALID,1002.33,VALID,0,VALID,87.9924,VALID,0,VALID,21.9065,VALID,188,VALID,1.64219,
2010-01-27, 01:22:05,VALID,1002.31,VALID,0,VALID,87.054,VALID,0,VALID,21.8675,VALID,195,VALID,1.76445,
2010-01-27, 01:23:05,VALID,1002.34,VALID,0,VALID,87.8017,VALID,0,VALID,21.8675,VALID,187,VALID,1.77188,
2010-01-27, 01:24:05,VALID,1002.3,VALID,0,VALID,86.7488,VALID,0,VALID,21.8285,VALID,184,VALID,2.38828,
2010-01-27, 01:25:05,VALID,1002.32,VALID,0,VALID,87.4965,VALID,0,VALID,21.8496,VALID,192,VALID,1.88125,
2010-01-27, 01:26:05,VALID,1002.27,VALID,0,VALID,87.6033,VALID,0,VALID,21.809,VALID,185,VALID,1.71211,
2010-01-27, 01:27:05,VALID,1002.23,VALID,0,VALID,87.0158,VALID,0,VALID,21.7895,VALID,183,VALID,2.44336,
2010-01-27, 01:28:05,VALID,1002.23,VALID,0,VALID,86.497,VALID,0,VALID,21.7716,VALID,187,VALID,2.60352,
2010-01-27, 01:29:05,VALID,1002.19,VALID,0,VALID,86.7106,VALID,0,VALID,21.7716,VALID,177,VALID,2.25117,
2010-01-27, 01:30:05,VALID,1002.19,VALID,0,VALID,87.5194,VALID,0,VALID,21.7911,VALID,185,VALID,1.75547,
2010-01-27, 01:31:05,VALID,1002.16,VALID,0,VALID,87.5499,VALID,0,VALID,21.77,VALID,176,VALID,2.44648,
2010-01-27, 01:32:05,VALID,1002.13,VALID,0,VALID,86.4894,VALID,0,VALID,21.731,VALID,184,VALID,2.73242,
2010-01-27, 01:33:05,VALID,1002.11,VALID,0,VALID,87.0387,VALID,0,VALID,21.7521,VALID,173,VALID,2.90352,
2010-01-27, 01:34:05,VALID,1002.1,VALID,0,VALID,86.7106,VALID,0,VALID,21.7521,VALID,184,VALID,2.25039,
2010-01-27, 01:35:05,VALID,1002.11,VALID,0,VALID,87.2294,VALID,0,VALID,21.731,VALID,167,VALID,1.88164,
2010-01-27, 01:36:05,VALID,1002.1,VALID,0,VALID,87.7406,VALID,0,VALID,21.7131,VALID,162,VALID,1.82227,
2010-01-27, 01:37:05,VALID,1002.09,VALID,0,VALID,86.9014,VALID,0,VALID,21.6741,VALID,163,VALID,1.9832,
2010-01-27, 01:38:05,VALID,1002.1,VALID,0,VALID,86.3902,VALID,0,VALID,21.6351,VALID,169,VALID,2.83633,
2010-01-27, 01:39:05,VALID,1002.07,VALID,0,VALID,86.6725,VALID,0,VALID,21.5945,VALID,166,VALID,2.3668,
2010-01-27, 01:40:05,VALID,1002.07,VALID,0,VALID,86.9243,VALID,0,VALID,21.5961,VALID,167,VALID,1.93008,
2010-01-27, 01:41:05,VALID,1002.06,VALID,0,VALID,86.8556,VALID,0,VALID,21.5555,VALID,164,VALID,1.76836,
2010-01-27, 01:42:05,VALID,1002.04,VALID,0,VALID,86.9929,VALID,0,VALID,21.536,VALID,167,VALID,1.68047,
2010-01-27, 01:43:05,VALID,1002.06,VALID,0,VALID,87.0997,VALID,0,VALID,21.5181,VALID,160,VALID,1.39375,
2010-01-27, 01:44:05,VALID,1002.06,VALID,0,VALID,86.8632,VALID,0,VALID,21.4986,VALID,151,VALID,1.28281,
2010-01-27, 01:45:05,VALID,1002.06,VALID,0,VALID,87.3363,VALID,0,VALID,21.458,VALID,150,VALID,1.26016,
2010-01-27, 01:46:05,VALID,1002.06,VALID,0,VALID,86.909,VALID,0,VALID,21.419,VALID,151,VALID,1.21211,
2010-01-27, 01:47:05,VALID,1002.04,VALID,0,VALID,86.8403,VALID,0,VALID,21.4596,VALID,146,VALID,1.04727,
2010-01-27, 01:48:05,VALID,1001.99,VALID,0,VALID,87.0082,VALID,0,VALID,21.4401,VALID,141,VALID,1.24805,
2010-01-27, 01:49:05,VALID,1002.01,VALID,0,VALID,86.8556,VALID,0,VALID,21.4206,VALID,124,VALID,1.10938,
2010-01-27, 01:50:05,VALID,1002.02,VALID,0,VALID,86.6115,VALID,0,VALID,21.4011,VALID,124,VALID,1.30625,
2010-01-27, 01:51:05,VALID,1001.95,VALID,0,VALID,86.8709,VALID,0,VALID,21.4011,VALID,122,VALID,0.727344,
2010-01-27, 01:52:05,VALID,1001.94,VALID,0,VALID,86.848,VALID,0,VALID,21.38,VALID,120,VALID,0.917188,
2010-01-27, 01:53:05,VALID,1001.93,VALID,0,VALID,87.0311,VALID,0,VALID,21.4011,VALID,119,VALID,1.04102,
2010-01-27, 01:54:05,VALID,1001.88,VALID,0,VALID,86.5733,VALID,0,VALID,21.3605,VALID,127,VALID,1.3957,
2010-01-27, 01:55:05,VALID,1001.87,VALID,0,VALID,86.6267,VALID,0,VALID,21.4011,VALID,129,VALID,1.24648,
2010-01-27, 01:56:05,VALID,1001.88,VALID,0,VALID,86.764,VALID,0,VALID,21.3995,VALID,138,VALID,1.12539,
2010-01-27, 01:57:05,VALID,1001.88,VALID,0,VALID,87.0921,VALID,0,VALID,21.4206,VALID,126,VALID,1.05625,
2010-01-27, 01:58:05,VALID,1001.85,VALID,0,VALID,87.3134,VALID,0,VALID,21.4011,VALID,118,VALID,1.00703,
2010-01-27, 01:59:05,VALID,1001.85,VALID,0,VALID,87.4278,VALID,0,VALID,21.3816,VALID,100,VALID,1.29336,
2010-01-27, 02:00:05,VALID,1001.84,VALID,0,VALID,87.5194,VALID,0,VALID,21.38,VALID,102,VALID,1.00664,
2010-01-27, 02:01:05,VALID,1001.84,VALID,0,VALID,87.5575,VALID,0,VALID,21.4206,VALID,101,VALID,0.991016,
2010-01-27, 02:02:05,VALID,1001.85,VALID,0,VALID,87.8627,VALID,0,VALID,21.4011,VALID,96,VALID,0.756641,
2010-01-27, 02:03:05,VALID,1001.86,VALID,0,VALID,88.2976,VALID,0,VALID,21.4206,VALID,96,VALID,0.414063,
2010-01-27, 02:04:05,VALID,1001.85,VALID,0,VALID,88.6028,VALID,0,VALID,21.4011,VALID,68,VALID,0.574609,
2010-01-27, 02:05:05,VALID,1001.86,VALID,0,VALID,88.5875,VALID,0,VALID,21.3816,VALID,62,VALID,0.630859,
2010-01-27, 02:06:05,VALID,1001.85,VALID,0,VALID,88.6257,VALID,0,VALID,21.3621,VALID,59,VALID,0.565234,
2010-01-27, 02:07:05,VALID,1001.87,VALID,0,VALID,88.8851,VALID,0,VALID,21.3215,VALID,59,VALID,0.620703,
2010-01-27, 02:08:05,VALID,1001.84,VALID,0,VALID,89.0682,VALID,0,VALID,21.3231,VALID,60,VALID,0.467578,
2010-01-27, 02:09:05,VALID,1001.83,VALID,0,VALID,89.3047,VALID,0,VALID,21.3036,VALID,60,VALID,0.404687,
2010-01-27, 02:10:05,VALID,1001.8,VALID,0,VALID,89.4268,VALID,0,VALID,21.3036,VALID,60,VALID,0.483203,
2010-01-27, 02:11:05,VALID,1001.79,VALID,0,VALID,89.4954,VALID,0,VALID,21.2841,VALID,60,VALID,0.318359,
2010-01-27, 02:12:05,VALID,1001.74,VALID,0,VALID,89.6633,VALID,0,VALID,21.2841,VALID,60,VALID,0.53125,
2010-01-27, 02:13:05,VALID,1001.72,VALID,0,VALID,89.6862,VALID,0,VALID,21.2435,VALID,55,VALID,0.876953,
2010-01-27, 02:14:05,VALID,1001.71,VALID,0,VALID,89.8388,VALID,0,VALID,21.2825,VALID,53,VALID,0.976563,
2010-01-27, 02:15:05,VALID,1001.74,VALID,0,VALID,90.1287,VALID,0,VALID,21.3231,VALID,42,VALID,1.12383,
2010-01-27, 02:16:05,VALID,1001.71,VALID,0,VALID,90.3728,VALID,0,VALID,21.3215,VALID,45,VALID,1.04883,
2010-01-27, 02:17:05,VALID,1001.7,VALID,0,VALID,90.6094,VALID,0,VALID,21.3426,VALID,45,VALID,1.07656,
2010-01-27, 02:18:05,VALID,1001.66,VALID,0,VALID,90.7467,VALID,0,VALID,21.3215,VALID,44,VALID,0.850781,
2010-01-27, 02:19:05,VALID,1001.62,VALID,0,VALID,90.8535,VALID,0,VALID,21.3215,VALID,43,VALID,0.680859,
2010-01-27, 02:20:05,VALID,1001.59,VALID,0,VALID,91.0214,VALID,0,VALID,21.3215,VALID,40,VALID,0.666797,
2010-01-27, 02:21:05,VALID,1001.54,VALID,0,VALID,91.1053,VALID,0,VALID,21.302,VALID,39,VALID,0.630469,
2010-01-27, 02:22:04,VALID,1001.49,VALID,0,VALID,91.1663,VALID,0,VALID,21.2825,VALID,31,VALID,0.660547,
2010-01-27, 02:23:04,VALID,1001.48,VALID,0,VALID,91.235,VALID,0,VALID,21.3036,VALID,33,VALID,0.704297,
2010-01-27, 02:24:04,VALID,1001.46,VALID,0,VALID,91.296,VALID,0,VALID,21.2825,VALID,38,VALID,1.01836,
2010-01-27, 02:25:04,VALID,1001.42,VALID,0,VALID,91.3113,VALID,0,VALID,21.3036,VALID,40,VALID,1.0375,
2010-01-27, 02:26:04,VALID,1001.4,VALID,0,VALID,91.3266,VALID,0,VALID,21.2825,VALID,41,VALID,0.834766,
2010-01-27, 02:27:04,VALID,1001.35,VALID,0,VALID,91.2808,VALID,0,VALID,21.3036,VALID,42,VALID,1.01055,
2010-01-27, 02:28:04,VALID,1001.32,VALID,0,VALID,91.296,VALID,0,VALID,21.3036,VALID,43,VALID,0.892187,
2010-01-27, 02:29:04,VALID,1001.31,VALID,0,VALID,91.1968,VALID,0,VALID,21.3036,VALID,45,VALID,1.1625,
2010-01-27, 02:30:04,VALID,1001.26,VALID,0,VALID,91.1282,VALID,0,VALID,21.2825,VALID,40,VALID,1.21563,
2010-01-27, 02:31:04,VALID,1001.26,VALID,0,VALID,91.0366,VALID,0,VALID,21.3036,VALID,47,VALID,1.24336,
2010-01-27, 02:32:04,VALID,1001.24,VALID,0,VALID,90.9603,VALID,0,VALID,21.3036,VALID,46,VALID,1.02578,
2010-01-27, 02:33:04,VALID,1001.22,VALID,0,VALID,90.8917,VALID,0,VALID,21.3231,VALID,48,VALID,1.01484,
2010-01-27, 02:34:04,VALID,1001.2,VALID,0,VALID,90.8077,VALID,0,VALID,21.3215,VALID,54,VALID,0.974219,
2010-01-27, 02:35:04,VALID,1001.22,VALID,0,VALID,90.7238,VALID,0,VALID,21.3215,VALID,52,VALID,1.01484,
2010-01-27, 02:36:04,VALID,1001.21,VALID,0,VALID,90.6933,VALID,0,VALID,21.3426,VALID,54,VALID,0.959375,
2010-01-27, 02:37:04,VALID,1001.2,VALID,0,VALID,90.7009,VALID,0,VALID,21.3621,VALID,51,VALID,1.11289,
2010-01-27, 02:38:04,VALID,1001.18,VALID,0,VALID,90.6933,VALID,0,VALID,21.341,VALID,54,VALID,0.821875,
2010-01-27, 02:39:04,VALID,1001.16,VALID,0,VALID,90.6933,VALID,0,VALID,21.3621,VALID,52,VALID,0.892969,
2010-01-27, 02:40:04,VALID,1001.17,VALID,0,VALID,90.6094,VALID,0,VALID,21.3605,VALID,47,VALID,0.936719,
2010-01-27, 02:41:04,VALID,1001.16,VALID,0,VALID,90.4644,VALID,0,VALID,21.3605,VALID,42,VALID,1.04453,
2010-01-27, 02:42:04,VALID,1001.17,VALID,0,VALID,90.4491,VALID,0,VALID,21.4206,VALID,32,VALID,0.964453,
2010-01-27, 02:43:04,VALID,1001.15,VALID,0,VALID,90.4186,VALID,0,VALID,21.4401,VALID,36,VALID,0.907422,
2010-01-27, 02:44:04,VALID,1001.12,VALID,0,VALID,90.617,VALID,0,VALID,21.4173,VALID,35,VALID,0.707422,
2010-01-27, 02:45:04,VALID,1001.15,VALID,0,VALID,90.7314,VALID,0.112286,VALID,21.458,VALID,31,VALID,0.703125,
2010-01-27, 02:46:04,VALID,1001.17,VALID,0,VALID,90.7543,VALID,0,VALID,21.4385,VALID,32,VALID,0.935547,
2010-01-27, 02:47:04,VALID,1001.18,VALID,0,VALID,90.7467,VALID,0.112286,VALID,21.4385,VALID,33,VALID,0.698047,
2010-01-27, 02:48:04,VALID,1001.17,VALID,0,VALID,90.8688,VALID,0,VALID,21.4385,VALID,32,VALID,0.553906,
2010-01-27, 02:49:04,VALID,1001.2,VALID,0,VALID,90.9985,VALID,0,VALID,21.4385,VALID,32,VALID,0.638672,
2010-01-27, 02:50:04,VALID,1001.17,VALID,0,VALID,90.9222,VALID,0,VALID,21.4385,VALID,31,VALID,0.702734,
2010-01-27, 02:51:04,VALID,1001.18,VALID,0,VALID,90.8993,VALID,0.112286,VALID,21.458,VALID,21,VALID,0.826563,
2010-01-27, 02:52:04,VALID,1001.21,VALID,0,VALID,90.9832,VALID,0.112286,VALID,21.458,VALID,20,VALID,0.810547,
2010-01-27, 02:53:04,VALID,1001.18,VALID,0,VALID,90.8459,VALID,0.112286,VALID,21.4368,VALID,24,VALID,1.06523,
2010-01-27, 02:54:04,VALID,1001.21,VALID,0,VALID,90.8306,VALID,0.112286,VALID,21.4368,VALID,25,VALID,1.00039,
2010-01-27, 02:55:04,VALID,1001.17,VALID,0,VALID,90.7543,VALID,0.112286,VALID,21.4775,VALID,29,VALID,0.789844,
2010-01-27, 02:56:04,VALID,1001.21,VALID,0,VALID,90.7238,VALID,0.112286,VALID,21.4563,VALID,28,VALID,0.760938,
2010-01-27, 02:57:04,VALID,1001.2,VALID,0,VALID,90.4873,VALID,0.112286,VALID,21.497,VALID,30,VALID,0.702734,
2010-01-27, 02:58:04,VALID,1001.2,VALID,0,VALID,90.6017,VALID,0.112286,VALID,21.497,VALID,30,VALID,0.791406,
2010-01-27, 02:59:04,VALID,1001.19,VALID,0,VALID,90.823,VALID,0,VALID,21.5181,VALID,30,VALID,0.686328,
2010-01-27, 03:00:04,VALID,1001.22,VALID,0,VALID,90.8688,VALID,0,VALID,21.5181,VALID,30,VALID,0.783594,
2010-01-27, 03:01:04,VALID,1001.2,VALID,0,VALID,90.823,VALID,0,VALID,21.5165,VALID,37,VALID,0.937109,
2010-01-27, 03:02:04,VALID,1001.21,VALID,0,VALID,90.8917,VALID,0,VALID,21.5376,VALID,46,VALID,0.734766,
2010-01-27, 03:03:04,VALID,1001.23,VALID,0,VALID,90.9909,VALID,0,VALID,21.536,VALID,56,VALID,0.818359,
2010-01-27, 03:04:04,VALID,1001.2,VALID,0,VALID,90.8306,VALID,0,VALID,21.536,VALID,62,VALID,0.792578,
2010-01-27, 03:05:04,VALID,1001.22,VALID,0,VALID,90.678,VALID,0,VALID,21.5555,VALID,58,VALID,0.757422,
2010-01-27, 03:06:04,VALID,1001.22,VALID,0,VALID,90.7162,VALID,0,VALID,21.5961,VALID,57,VALID,0.394922,
2010-01-27, 03:07:04,VALID,1001.21,VALID,0,VALID,90.7238,VALID,0,VALID,21.5945,VALID,48,VALID,0.699609,
2010-01-27, 03:08:04,VALID,1001.22,VALID,0,VALID,90.6628,VALID,0,VALID,21.6156,VALID,41,VALID,0.941016,
2010-01-27, 03:09:04,VALID,1001.26,VALID,0,VALID,90.617,VALID,0.112286,VALID,21.614,VALID,40,VALID,0.478125,
2010-01-27, 03:10:04,VALID,1001.23,VALID,0,VALID,90.6246,VALID,0,VALID,21.6351,VALID,42,VALID,0.596094,
2010-01-27, 03:11:04,VALID,1001.24,VALID,0,VALID,90.3194,VALID,0,VALID,21.6351,VALID,58,VALID,0.887891,
2010-01-27, 03:12:04,VALID,1001.25,VALID,0,VALID,90.1058,VALID,0,VALID,21.6351,VALID,62,VALID,0.566016,
2010-01-27, 03:13:04,VALID,1001.23,VALID,0,VALID,90.1897,VALID,0,VALID,21.6546,VALID,62,VALID,0.61875,
2010-01-27, 03:14:04,VALID,1001.27,VALID,0,VALID,90.266,VALID,0,VALID,21.6741,VALID,61,VALID,0.535937,
2010-01-27, 03:15:04,VALID,1001.26,VALID,0,VALID,90.5636,VALID,0,VALID,21.6936,VALID,62,VALID,0.0121094,
2010-01-27, 03:16:04,VALID,1001.23,VALID,0,VALID,90.6704,VALID,0,VALID,21.6741,VALID,64,VALID,0.499609,
2010-01-27, 03:17:04,VALID,1001.28,VALID,0,VALID,90.884,VALID,0,VALID,21.6936,VALID,67,VALID,0.408984,
2010-01-27, 03:18:04,VALID,1001.27,VALID,0,VALID,90.9832,VALID,0,VALID,21.6725,VALID,102,VALID,0.386719,
2010-01-27, 03:19:04,VALID,1001.25,VALID,0,VALID,90.617,VALID,0,VALID,21.6546,VALID,102,VALID,0.552734,
2010-01-27, 03:20:04,VALID,1001.29,VALID,0,VALID,90.5026,VALID,0,VALID,21.6546,VALID,102,VALID,0.426562,
2010-01-27, 03:21:04,VALID,1001.28,VALID,0,VALID,90.3576,VALID,0,VALID,21.614,VALID,102,VALID,0.356641,
2010-01-27, 03:22:04,VALID,1001.27,VALID,0,VALID,90.4034,VALID,0,VALID,21.6546,VALID,102,VALID,0,
2010-01-27, 03:23:04,VALID,1001.29,VALID,0,VALID,90.3728,VALID,0,VALID,21.614,VALID,102,VALID,0,
2010-01-27, 03:24:04,VALID,1001.32,VALID,0,VALID,90.3652,VALID,0,VALID,21.6351,VALID,102,VALID,0,
2010-01-27, 03:25:04,VALID,1001.32,VALID,0,VALID,90.205,VALID,0,VALID,21.6335,VALID,102,VALID,0.0230469,
2010-01-27, 03:26:04,VALID,1001.31,VALID,0,VALID,90.1897,VALID,0,VALID,21.6335,VALID,102,VALID,0.498047,
2010-01-27, 03:27:04,VALID,1001.31,VALID,0,VALID,90.1668,VALID,0,VALID,21.6335,VALID,102,VALID,0.408984,
2010-01-27, 03:28:04,VALID,1001.34,VALID,0,VALID,90.2126,VALID,0,VALID,21.6741,VALID,102,VALID,0.507813,
2010-01-27, 03:29:04,VALID,1001.35,VALID,0,VALID,90.0753,VALID,0,VALID,21.6335,VALID,102,VALID,0.4875,
2010-01-27, 03:30:04,VALID,1001.37,VALID,0,VALID,90.0448,VALID,0,VALID,21.6351,VALID,102,VALID,0.434766,
2010-01-27, 03:31:04,VALID,1001.39,VALID,0,VALID,90.0371,VALID,0,VALID,21.6351,VALID,101,VALID,0.461719,
2010-01-27, 03:32:04,VALID,1001.42,VALID,0,VALID,90.1211,VALID,0,VALID,21.6351,VALID,101,VALID,0.48125,
2010-01-27, 03:33:04,VALID,1001.37,VALID,0,VALID,90.3042,VALID,0,VALID,21.6351,VALID,100,VALID,0.434766,
2010-01-27, 03:34:04,VALID,1001.41,VALID,0,VALID,90.4873,VALID,0,VALID,21.6546,VALID,99,VALID,0.411328,
2010-01-27, 03:35:04,VALID,1001.4,VALID,0,VALID,90.411,VALID,0,VALID,21.6351,VALID,94,VALID,0.657031,
2010-01-27, 03:36:04,VALID,1001.37,VALID,0,VALID,90.4568,VALID,0,VALID,21.614,VALID,94,VALID,0.637109,
2010-01-27, 03:37:04,VALID,1001.38,VALID,0,VALID,90.5254,VALID,0,VALID,21.5945,VALID,94,VALID,0.557031,
2010-01-27, 03:38:04,VALID,1001.38,VALID,0,VALID,90.7009,VALID,0,VALID,21.5945,VALID,94,VALID,0.421875,
2010-01-27, 03:39:04,VALID,1001.39,VALID,0,VALID,90.7238,VALID,0,VALID,21.575,VALID,94,VALID,0.38125,
2010-01-27, 03:40:04,VALID,1001.39,VALID,0,VALID,90.5941,VALID,0,VALID,21.5766,VALID,94,VALID,0.470703,
2010-01-27, 03:41:04,VALID,1001.39,VALID,0,VALID,90.556,VALID,0,VALID,21.5766,VALID,94,VALID,0.228906,
2010-01-27, 03:42:04,VALID,1001.4,VALID,0,VALID,90.6017,VALID,0,VALID,21.5555,VALID,94,VALID,0,
2010-01-27, 03:43:04,VALID,1001.41,VALID,0,VALID,90.7085,VALID,0,VALID,21.5555,VALID,94,VALID,0,
2010-01-27, 03:44:04,VALID,1001.42,VALID,0,VALID,90.8001,VALID,0,VALID,21.5766,VALID,94,VALID,0,
2010-01-27, 03:45:04,VALID,1001.43,VALID,0,VALID,90.8001,VALID,0,VALID,21.5766,VALID,76,VALID,0.546094,